星链-31961 (STARLINK-31961 )

导读

STARLINK-31961是美国SpaceX公司星链星座的一员,于北京时间2024年5月28日08:00成功发射。星链项目旨在打造全球覆盖的低轨卫星互联网,可提供10-30Mbps上传、45-280Mbps下载的网络服务,延迟25-60ms,满足流媒体、视频通话等日常需求。STARLINK-31961运行在近地轨道,将与其他星链卫星组网,进一步扩展星座规模,推进全球无缝互联目标实现。

Basic Information
目录编号:
59894
目录名称:
STARLINK-31961
国际标识:
2024-100K
轨道中心:
EARTH
卫星名称:
星链-31961
卫星全名:
星链-31961 (STARLINK-31961 )
卫星状态:
在轨 (已飞行829 天)
发射日期:
2024-05-28 UTC
国别 :
美国 (US)
星等 :
--
Orbit Information
数据来源 国际轨道数据 AOE轨道数据
星历时间 2026-09-04T12:01:46+0800
5小时前
查看轨道信息
2026-09-04T00:00:00+0800
17小时前
查看轨道信息
半长轴 6861.196km 6861.187km
偏心率 0.0001103 0.000296
轨道倾角 43.004° 43.008°
近地点辐角 271.077° 315.362°
升交点赤经 190.455° 193.295°
平近点角 88.996° 165.078°
近地点 482.302km 481.019km
远地点 483.816km 485.081km
周期 94.267分钟 94.267分钟
每日圈数 15.275767 15.275799
Detailed Information
固有亮度:
5
最大亮度:
1.5
卫星平台:
Starlink v2.0 mini
覆盖范围:
全球
运营商:
太空探索技术公司
运营商所在国:
美国
制造商(研发单位):
太空探索技术公司
制造商所在国:
美国
使用方式:
暂无
Satellite Introduction
星链(Starlink)计划是由太空探索技术公司(SpaceX)提出的一个巨型低轨卫星互联网星座项目,计划在2019年至2024年间在太空搭建由约1.2万颗卫星组成的“星链”网络,其中1584颗将部署在地球上空550千米处的近地轨道,并从2020年开始工作。该卫星仍在工作。
2D Orbit Map
3D Orbit Map
Orbit Altitude Analysis Chart
Orbit Inclination Analysis Chart
Orbit Comprehensive Analysis Chart
View Comprehensive Chart
Conjunction Data List
Event ID Objects TCA Miss Dist (km) Collision Risk Probability Collision Risk Index (CRI) Action
CDM_260904-111805-989406-696622
2026-09-04T
11:18:51+0000
0.317 km
远距离
3.485924E-4 高风险 0.86
CDM_260905-075405-989406-212921
2026-09-05T
07:54:24+0000
0.337 km
远距离
1.409546E-4 高风险 0.78
CDM_260904-130805-989406-389922
2026-09-04T
13:08:55+0000
0.554 km
远距离
8.221424E-5 中风险 0.73
CDM_260904-232005-989406-389921
2026-09-04T
23:20:55+0000
0.760 km
远距离
3.208384E-5 中风险 0.65
CDM_260903-215805-989406-696622
2026-09-03T
21:58:33+0000
1.107 km
极远距离
1.201606E-5 中风险 0.57
CDM_260905-084105-989406-212921
2026-09-05T
08:41:29+0000
0.812 km
远距离
1.132119E-5 中风险 0.56
CDM_260904-113405-989406-389922
2026-09-04T
11:34:45+0000
1.169 km
极远距离
7.425884E-6 低风险 0.52
CDM_260904-214605-989406-389922
2026-09-04T
21:46:45+0000
1.173 km
极远距离
7.348292E-6 低风险 0.52
CDM_260903-233205-989406-696622
2026-09-03T
23:32:42+0000
1.481 km
极远距离
4.493253E-6 低风险 0.48
CDM_260905-101505-989406-212921
2026-09-05T
10:15:38+0000
1.396 km
极远距离
1.871364E-6 低风险 0.4